Location: Cadenet
(43.7345°N, 5.3750°E)
Time: 03:46:43
(UTC+00:00)

Cosmos 1459 Rocket - Pass Details

Date: 18 February 2020
Orbit: 938 x 999 km, 83.0° (Epoch: 30 March)

Event Time Altitude Azimuth Distance (km) Brightness Sun altitude
Rises 05:36:34 0° 347° (NNW) 3,641 6.8 -11.0°
Reaches altitude 10° 05:39:08 10° 342° (NNW) 2,699 6.1 -10.5°
Maximum altitude 05:45:02 49° 269° (W) 1,226 4.2 -9.5°
Drops below altitude 10° 05:51:00 10° 196° (SSW) 2,722 6.3 -8.4°
Sets 05:53:35 0° 191° (SSW) 3,675 7.0 -7.9°
